Location: Passau
(48.5830°N, 13.4830°E)
Time: 19:37:06
(UTC+02:00)

Vanguard 3 - Pass Details

Date: 26 May 2024
Orbit: 509 x 3231 km, 33.3° (Epoch: 15 June)

Event Time Altitude Azimuth Distance (km) Brightness Sun altitude
Rises 23:56:50 0° 266° (W) 5,223 11.4 -18.7°
Reaches altitude 10° 00:00:28 10° 256° (WSW) 4,598 11.0 -18.9°
Maximum altitude 00:11:24 29° 203° (SSW) 4,114 10.2 -19.3°
Enters shadow 00:17:35 24° 175° (S) 4,755 10.4 -19.5°
Drops below altitude 10° 00:25:52 10° 153° (SSE) 6,106 - -19.8°
Sets 00:31:48 0° 144° (SE) 7,180 - -19.9°
